Location: *
(49.1561°N, 27.5550°E)
Time: 12:26:24
(UTC+00:00)

Daily predictions for brighter satellites

Satellite Brightness Start Highest point End
(mag) Time Altitude Azimuth Time Altitude Azimuth Time Altitude Azimuth
Cosmos 2184 Rocket 4.3 17:14:35 10° N 17:20:42 49° ENE 17:26:42 10° SSE
STARLINK-1241 4.4 17:17:01 10° W 17:21:04 51° N 17:25:07 10° ENE
Cosmos 2251 Rocket 3.6 17:16:43 10° S 17:21:58 58° ESE 17:27:15 10° NNE
ARGOS 3.3 17:18:17 10° SSE 17:23:34 60° ENE 17:28:53 10° N
STARLINK-1228 3.8 17:23:18 10° WNW 17:26:02 37° N 17:28:45 10° ENE
STARLINK-1239 4.4 17:22:00 10° W 17:26:03 50° N 17:30:06 10° ENE
Cosmos 1726 2.7 17:24:48 10° SSE 17:28:16 37° E 17:31:45 10° NNE
Meteor 2-10 4.4 17:25:23 10° SSE 17:30:35 49° E 17:36:00 10° NNE
STARLINK-1240 4.4 17:27:02 10° W 17:31:04 49° N 17:35:06 10° ENE
SJ-6B 3.1 17:28:47 10° SSE 17:32:48 56° ENE 17:36:53 10° N
ISS -1.8 17:30:38 10° W 17:33:23 23° SW 17:36:07 10° SSE
Cosmos 1626 Rocket 4.4 17:30:08 10° NNW 17:34:24 53° W 17:38:37 10° S
MONITOR-E 3.7 17:32:58 10° SSE 17:35:36 69° ENE 17:38:14 10° N
ATLAS 2AS CENTAUR R/B 3.1 17:27:59 10° NW 17:35:41 62° NE 17:42:32 11° ESE
STARLINK-1233 3.9 17:32:53 10° WNW 17:35:53 39° N 17:38:53 10° ENE
STARLINK-1216 4.4 17:32:02 10° W 17:36:05 49° N 17:40:07 10° ENE
STARLINK-1212 3.9 17:33:21 10° WNW 17:36:20 39° N 17:39:19 10° ENE
STARLINK-1105 3.9 17:33:47 10° WNW 17:36:47 39° N 17:39:47 10° ENE
STARLINK-1206 3.9 17:34:17 10° WNW 17:37:15 39° N 17:40:14 10° ENE
Cosmos 1603 3.7 17:31:51 10° SSW 17:37:23 62° ESE 17:42:55 10° NNE
STARLINK-1247 3.9 17:34:44 10° WNW 17:37:43 39° N 17:40:42 10° ENE
USA 234 4.3 17:32:54 10° ENE 17:37:50 22° SE 17:42:44 10° S
STARLINK-1227 3.9 17:35:09 10° WNW 17:38:09 40° N 17:41:09 10° ENE
IRIDIUM 104 4.3 17:33:00 10° N 17:38:14 70° E 17:43:26 10° SSE
STARLINK-1218 3.9 17:35:39 10° WNW 17:38:37 39° N 17:41:36 10° ENE
STARLINK-1226 3.9 17:36:05 10° WNW 17:39:04 39° N 17:42:03 10° ENE
STARLINK-1254 3.9 17:36:30 10° WNW 17:39:30 40° N 17:42:29 10° ENE
STARLINK-1215 3.9 17:37:00 10° WNW 17:39:58 39° N 17:42:56 10° ENE
STARLINK-1231 3.9 17:37:27 10° WNW 17:40:25 40° N 17:43:21 10° ENE
STARLINK-1237 4.4 17:37:02 10° W 17:41:04 49° N 17:45:05 10° ENE
STARLINK-1232 3.9 17:38:21 10° WNW 17:41:20 40° N 17:44:13 11° ENE
USA 186 1.8 17:38:14 10° SSE 17:41:35 88° WSW 17:44:49 10° NNW
STARLINK-1217 3.9 17:38:48 10° WNW 17:41:47 40° N 17:44:40 11° ENE
Ariane Rocket 3.3 17:36:59 10° S 17:42:03 73° WSW 17:47:08 10° NNW
Meteor 1-21 Rocket 4.3 17:36:35 10° NNW 17:42:11 84° W 17:47:43 10° S
STARLINK-1208 3.9 17:39:13 10° WNW 17:42:13 40° N 17:45:06 11° ENE
STARLINK-67 3.2 17:39:51 10° WNW 17:42:20 43° NNE 17:44:19 14° E
STARLINK-1229 3.9 17:39:41 10° WNW 17:42:41 40° N 17:45:30 11° ENE
Cosmos 2154 Rocket 4.4 17:36:47 10° N 17:42:55 47° ENE 17:49:00 10° SSE
STARLINK-1271 3.9 17:40:09 10° WNW 17:43:08 40° N 17:45:57 11° ENE
MOS 1 Rocket 4.4 17:38:35 10° NNE 17:43:17 30° E 17:48:02 10° SSE
STARLINK-1234 3.7 17:40:35 10° WNW 17:43:30 42° N 17:46:06 12° E
STARLINK-1270 3.9 17:40:38 10° WNW 17:43:36 40° N 17:46:24 11° ENE
Cosmos 2058 Rocket 4.3 17:40:19 10° SE 17:43:53 24° E 17:47:28 10° NE
MOS 1 4.3 17:38:20 10° SSE 17:43:59 89° ENE 17:49:42 10° NNW
STARLINK-1154 3.9 17:41:03 10° WNW 17:44:02 40° N 17:46:49 11° ENE
STARLINK-1197 3.9 17:41:58 10° WNW 17:44:57 40° N 17:47:41 12° ENE
Cosmos 1602 Rocket 4.4 17:40:42 10° NNW 17:45:03 54° W 17:49:20 10° S
STARLINK-1189 3.9 17:42:25 10° WNW 17:45:24 40° N 17:48:07 12° ENE
STARLINK-1198 3.9 17:42:51 10° WNW 17:45:51 40° N 17:48:33 12° ENE
STARLINK-1202 4.4 17:42:01 10° WNW 17:46:03 48° N 17:50:05 10° ENE
STARLINK-1188 3.9 17:43:19 10° WNW 17:46:18 40° N 17:48:59 12° ENE
STARLINK-1209 3.6 17:43:37 10° WNW 17:46:29 42° N 17:48:52 14° E
Cosmos 1758 4.4 17:42:59 10° SSW 17:46:59 51° WNW 17:51:00 10° N
Meteor 1-16 Rocket 4.2 17:41:45 10° S 17:47:00 56° E 17:52:26 10° NNE
STARLINK-1235 3.7 17:43:59 10° WNW 17:47:01 43° N 17:49:37 13° E
Nadezhda 1 Rocket 4.4 17:41:23 10° SSE 17:47:23 45° E 17:53:22 10° NNE
IRIDIUM 114 4.3 17:42:08 10° N 17:47:24 83° E 17:52:38 10° S
STARLINK-1187 3.8 17:44:23 10° WNW 17:47:25 42° N 17:50:03 13° E
Resurs 01 Rocket 2.5 17:44:08 12° SE 17:47:40 32° ENE 17:51:36 10° N
STARLINK-1199 3.9 17:45:16 10° WNW 17:48:16 41° N 17:50:54 13° ENE
STARLINK-1191 3.8 17:45:43 10° WNW 17:48:44 41° N 17:51:20 13° ENE
FREGAT/IRIS 2.8 17:46:16 10° S 17:48:58 61° W 17:51:40 10° NNW
STARLINK-1210 3.8 17:46:10 10° WNW 17:49:11 41° N 17:51:47 13° ENE
STARLINK-1221 3.8 17:46:37 10° WNW 17:49:38 41° N 17:52:12 13° ENE
STARLINK-1219 3.8 17:47:04 10° WNW 17:50:05 41° N 17:52:38 13° ENE
STARLINK-1203 4.4 17:46:01 10° WNW 17:50:06 48° N 17:54:08 10° ENE
STARLINK-1222 3.8 17:47:32 10° WNW 17:50:32 41° N 17:53:04 13° ENE
SeaSat 1 3.5 17:46:09 10° NNE 17:50:55 50° NW 17:55:40 10° SW
STARLINK-1211 3.8 17:47:58 10° WNW 17:51:00 41° N 17:53:31 14° ENE
STARLINK-1214 3.8 17:48:25 10° WNW 17:51:27 41° N 17:53:56 14° ENE
Aureole 3 4.2 17:46:45 10° SSW 17:51:28 80° W 17:57:33 10° N
STARLINK-1245 3.8 17:48:55 10° WNW 17:51:55 41° N 17:54:21 14° ENE
STARLINK-1238 3.8 17:49:19 10° WNW 17:52:21 42° N 17:54:49 14° ENE
STARLINK-1205 3.8 17:50:15 10° WNW 17:53:15 41° N 17:55:39 14° ENE
STARLINK-1204 3.8 17:50:43 10° WNW 17:53:44 42° N 17:56:06 15° ENE
ATLAS 5 CENTAUR R/B 2.8 17:52:58 10° SSE 17:55:55 19° ESE 17:59:04 10° ENE
STARLINK-1246 4.4 17:52:02 10° WNW 17:56:04 48° N 17:59:51 11° ENE
SL-4 R/B 2.3 17:53:05 10° SSW 17:56:08 31° SE 17:58:04 18° E
IRIDIUM 103 4.4 17:51:20 10° N 17:56:35 84° W 18:01:48 10° S
Cosmos 1726 Rocket 3.9 17:53:04 10° SSE 17:57:16 45° E 18:01:31 10° NNE
Cosmos 1340 Rocket 3.7 17:57:19 12° SSE 18:00:32 29° E 18:04:03 10° NNE
STARLINK-1224 4.4 17:57:02 10° WNW 18:01:04 48° N 18:04:38 13° ENE
STARLINK-1201 3.8 17:58:28 10° WNW 18:01:37 44° N 18:03:51 17° ENE
Cosmos 1825 Rocket 3.5 17:57:45 10° N 18:02:12 88° WSW 18:06:33 10° S
Cosmos 1328 3.7 17:59:48 10° N 18:03:49 70° E 18:07:39 11° SSE
STARLINK-1225 4.4 18:02:02 10° WNW 18:06:05 48° N 18:09:26 14° ENE
Cosmos 2074 Rocket 4.2 18:01:12 10° NNW 18:07:30 80° W 18:13:47 10° S
Cosmos 1943 Rocket 3.8 18:02:36 10° NW 18:07:31 33° WSW 18:12:27 10° SSW
BREEZE-M DEB (TANK) 3.6 18:01:59 10° WNW 18:08:34 69° SSW 18:10:14 25° ESE
Cosmos 614 Rocket 4.1 18:03:53 10° S 18:08:54 50° ESE 18:13:56 10° NNE
Cosmos 2369 Rocket 3.3 18:03:56 10° NW 18:09:17 43° WSW 18:14:34 10° S
Cosmos 1703 3.2 18:05:27 10° N 18:09:26 84° E 18:13:16 11° S
COSMOS 2455 3.3 18:03:39 10° NNW 18:09:30 48° NE 18:13:30 20° ESE
SPOT 3 Rocket 3.6 18:05:51 10° SSE 18:11:05 89° ENE 18:16:20 10° NNW
STARLINK-1230 4.3 18:07:02 10° WNW 18:11:05 49° N 18:14:13 16° ENE
SL-24 R/B 3.8 18:09:15 10° NNE 18:13:31 71° ESE 18:17:18 10° S
Cosmos 1758 Rocket 4.2 18:10:39 10° NNW 18:14:54 55° W 18:19:07 10° S
Cosmos 1300 3.9 18:15:54 23° E 18:16:01 23° E 18:19:06 10° NE
STARLINK-1243 4.3 18:12:01 10° WNW 18:16:03 49° N 18:18:59 17° ENE
CZ-2C R/B 3.7 18:12:18 10° NNE 18:17:04 78° ESE 18:21:43 10° S
Cosmos 921 Rocket 3.3 18:14:28 10° N 18:18:32 45° ENE 18:20:23 27° ESE
Abrixas rocket 1.8 18:16:53 10° W 18:19:50 78° S 18:20:44 41° ESE
Cosmos 407 Rocket 3.6 18:14:56 10° S 18:19:54 51° ESE 18:24:52 10° NNE
STARLINK-1236 4.3 18:17:02 10° WNW 18:21:05 50° N 18:23:46 19° ENE
Cosmos 1437 4.4 18:19:37 10° NNW 18:22:21 31° W 18:25:04 10° SSW
Cosmos 1953 Rocket 3.7 18:18:01 10° NNW 18:22:30 81° W 18:26:49 11° S
Cosmos 1953 3.9 18:19:05 10° SW 18:22:48 38° WNW 18:26:34 10° N
Cosmos 1610 Rocket 4.5 18:17:18 10° N 18:23:33 90° WNW 18:29:41 10° S
Cosmos 2228 3.0 18:19:32 10° S 18:23:50 84° W 18:28:12 10° N
Cosmos 1606 Rocket 3.7 18:21:45 10° SSW 18:26:11 76° WNW 18:30:40 10° N
Cosmos 1818 3.5 18:21:51 10° SW 18:27:17 88° SE 18:32:48 10° NE
Cosmos 1908 3.2 18:24:52 10° S 18:28:43 85° W 18:32:39 10° N
ERS-1 Rocket 4.2 18:27:40 22° E 18:29:16 26° ENE 18:33:21 10° N
STARLINK-1269 4.2 18:27:02 10° WNW 18:31:06 51° N 18:33:21 24° ENE
Meteor 1-11 4.3 18:26:19 10° NNW 18:32:08 84° W 18:37:14 13° S
ATLAS CENTAUR R/B 3.8 18:31:13 10° N 18:32:45 12° NNE 18:34:15 10° NE
BREEZE M DEB (TANK) 3.7 18:25:12 10° SW 18:34:00 48° SSE 18:35:23 33° ESE
Cosmos 1943 3.6 18:29:58 10° SW 18:35:36 65° WNW 18:41:18 10° NNE
SPOT 1/Viking Rocket 4.3 18:33:53 27° ESE 18:35:47 36° ENE 18:40:33 10° N
STARLINK-1200 4.2 18:32:01 10° WNW 18:36:05 52° N 18:38:08 26° ENE
ERBS 3.8 18:33:19 10° NW 18:36:18 28° NNE 18:37:32 22° NE
MetOp-B 4.2 18:33:47 26° SE 18:36:42 61° ENE 18:42:00 10° N
APEX 4.4 18:31:28 10° NNW 18:38:12 77° WSW 18:41:48 23° SSE
BREEZE-M DEB (TANK) 1.2 18:37:07 10° WSW 18:41:00 83° S 18:41:06 79° ESE
STARLINK-1192 4.2 18:37:00 10° WNW 18:41:04 53° N 18:42:54 29° ENE
Cosmos 1461 3.0 18:37:05 10° NW 18:41:37 90° ESE 18:43:27 37° SE
Cosmos 1954 Rocket 4.4 18:40:59 28° SSE 18:43:04 41° ESE 18:47:56 10° NE
CZ-4C R/B 4.1 18:40:28 10° NW 18:46:04 29° NNE 18:51:57 12° ENE
STARLINK-1244 4.1 18:41:59 10° WNW 18:46:05 54° N 18:47:41 32° ENE
H-2A R/B 4.2 18:44:09 10° SSW 18:48:23 25° W 18:52:32 10° NW
STARLINK-1138 4.1 18:46:58 10° WNW 18:51:03 56° NNE 18:52:27 36° ENE
Cosmos 1697 Rocket 4.3 18:47:05 10° N 18:51:29 22° NE 18:53:43 18° ENE
Cosmos 1023 Rocket 4.3 18:46:48 10° SSW 18:51:57 72° ESE 18:57:05 10° NNE
SAR-Lupe-2 3.4 18:48:40 10° NNE 18:52:14 63° ESE 18:52:18 63° ESE
NOSS 3-4 (A) 4.1 18:47:24 10° NW 18:54:17 64° SW 18:58:54 25° SSE
NOSS 3-4 (C) 4.1 18:47:30 10° NW 18:54:24 65° SW 18:58:59 25° SSE
STARLINK-1143 4.0 18:51:56 10° WNW 18:56:02 57° NNE 18:57:14 40° ENE
CZ-2C R/B 2.6 18:51:31 10° NNE 18:56:43 78° WNW 19:01:53 10° SSW
Cosmos 2341 Rocket 4.0 18:51:18 10° N 18:57:43 89° ENE 19:01:44 25° S
SPOT 5 3.5 18:57:33 31° ENE 18:57:44 31° ENE 19:01:33 10° N
Cosmos 1076 Rocket 3.9 18:53:58 10° N 18:58:05 44° ENE 18:58:15 44° E
STARLINK-1228 3.6 18:58:09 10° WNW 19:00:22 48° WNW 19:00:22 48° WNW
STARLINK-1241 4.0 18:56:57 10° WNW 19:01:04 59° NNE 19:02:03 45° ENE
Aureole 1 Rocket 4.2 18:53:55 10° SSW 19:01:31 77° WNW 19:07:27 10° NNE
STARLINK-1239 3.9 19:01:55 10° WNW 19:06:03 61° NNE 19:06:49 50° ENE
Iridium 2 3.9 19:07:08 57° NE 19:07:08 57° NE 19:10:28 10° N
Cosmos 2058 3.1 19:04:11 10° N 19:08:05 53° ENE 19:08:05 53° ENE
Cosmos 1763 Rocket 4.0 19:03:47 10° NNW 19:08:44 41° ENE 19:09:33 38° E
STARLINK-1240 3.8 19:06:56 10° WNW 19:11:03 63° NNE 19:11:36 56° ENE
STARLINK-1233 3.8 19:08:46 10° WNW 19:11:11 49° WNW 19:11:11 49° WNW
STARLINK-1212 3.8 19:09:14 10° WNW 19:11:36 48° WNW 19:11:36 48° WNW
BREEZE M DEB (TANK) 3.5 19:09:05 10° SW 19:12:43 50° SE 19:23:28 10° ENE
STARLINK-1105 3.8 19:09:40 10° WNW 19:12:03 48° WNW 19:12:03 48° WNW
STARLINK-1206 3.9 19:10:10 10° WNW 19:12:28 45° WNW 19:12:28 45° WNW
STARLINK-1247 3.9 19:10:37 10° WNW 19:12:54 45° WNW 19:12:54 45° WNW
STARLINK-1227 3.9 19:11:01 10° WNW 19:13:20 46° WNW 19:13:20 46° WNW
STARLINK-1218 4.0 19:11:32 10° WNW 19:13:47 44° WNW 19:13:47 44° WNW
STARLINK-1226 4.0 19:11:57 10° WNW 19:14:12 43° WNW 19:14:12 43° WNW
Cosmos 2218 Rocket 3.9 19:09:08 10° N 19:15:21 78° E 19:17:37 42° SSE
STARLINK-1254 4.0 19:12:22 10° WNW 19:14:38 44° WNW 19:14:38 44° WNW
STARLINK-1215 4.1 19:12:52 10° WNW 19:15:04 42° WNW 19:15:04 42° WNW
STARLINK-1216 3.7 19:11:55 10° WNW 19:16:03 65° NNE 19:16:24 62° NE
Terra 2.5 19:16:09 37° ENE 19:16:14 37° ENE 19:20:36 10° N
STARLINK-1231 4.1 19:13:19 10° WNW 19:15:30 41° WNW 19:15:30 41° WNW
STARLINK-1232 4.1 19:14:14 10° WNW 19:16:22 40° WNW 19:16:22 40° WNW
Cosmos 1174 4.3 19:13:44 10° NNW 19:17:37 53° NE 19:17:51 53° ENE
STARLINK-1217 4.2 19:14:40 10° WNW 19:16:48 40° WNW 19:16:48 40° WNW
STARLINK-1208 4.1 19:15:05 10° WNW 19:17:15 40° WNW 19:17:15 40° WNW
STARLINK-1229 4.2 19:15:33 10° WNW 19:17:39 39° WNW 19:17:39 39° WNW
Cosmos 1408 4.3 19:15:49 10° N 19:17:45 23° NE 19:17:45 23° NE
STARLINK-1271 4.2 19:16:01 10° WNW 19:18:06 38° WNW 19:18:06 38° WNW
STARLINK-1234 4.5 19:16:08 10° WNW 19:17:59 32° W 19:17:59 32° W
STARLINK-1270 4.3 19:16:29 10° WNW 19:18:33 38° WNW 19:18:33 38° WNW
Cosmos 1980 Rocket 3.9 19:15:29 10° N 19:19:40 21° NE 19:21:25 18° ENE
STARLINK-1154 4.3 19:16:55 10° WNW 19:18:57 37° WNW 19:18:57 37° WNW
RESURS DK-1 3.8 19:17:07 10° N 19:20:33 27° NE 19:20:33 27° NE
STARLINK-1197 4.3 19:17:49 10° WNW 19:19:50 36° WNW 19:19:50 36° WNW
STARLINK-1237 3.7 19:16:53 10° WNW 19:21:02 68° NNE 19:21:09 67° NNE
STARLINK-1189 4.4 19:18:16 10° WNW 19:20:16 36° WNW 19:20:16 36° WNW
Cosmos 192 4.2 19:16:36 10° NNW 19:21:35 70° ENE 19:22:06 64° ESE
USA 234 3.1 19:15:05 10° ENE 19:21:38 70° SE 19:28:09 10° SW
Cosmos 2058 Rocket 4.3 19:17:22 10° SW 19:21:39 41° WNW 19:25:57 10° N
STARLINK-1198 4.4 19:18:43 10° WNW 19:20:42 35° WNW 19:20:42 35° WNW
STARLINK-1188 4.4 19:19:11 10° WNW 19:21:08 35° WNW 19:21:08 35° WNW
STARLINK-1235 4.5 19:19:50 10° WNW 19:21:46 33° W 19:21:46 33° W
STARLINK-1187 4.5 19:20:15 10° WNW 19:22:12 34° WNW 19:22:12 34° WNW
Resurs 01 Rocket 3.2 19:21:42 19° SW 19:24:09 31° W 19:28:06 10° NNW
STARLINK-1199 4.5 19:21:07 10° WNW 19:23:03 34° WNW 19:23:03 34° WNW
STARLINK-1202 3.7 19:21:51 10° WNW 19:25:56 70° N 19:25:56 70° N
Cosmos 1455 4.5 19:28:47 15° NE 19:28:47 15° NE 19:29:41 10° NNE
ATLAS 2AS CENTAUR R/B 3.7 19:19:28 10° NW 19:26:23 41° WSW 19:29:59 24° SSW
Cosmos 1892 3.3 19:23:46 10° N 19:26:53 52° NNE 19:26:53 52° NNE
Cosmos 1656 4.0 19:22:44 10° NNW 19:28:20 52° NE 19:29:11 48° E
STARLINK-1203 3.7 19:26:01 10° WNW 19:29:59 73° NNW 19:29:59 73° NNW
Cosmos 2181 Rocket 3.9 19:27:29 29° SSW 19:30:57 84° W 19:37:11 10° N
Iridium 4 Rocket 2.9 19:26:52 10° N 19:30:54 79° N 19:30:54 79° N
CARTOSAT-1 3.7 19:33:01 66° NE 19:33:01 66° NE 19:36:58 10° N
Spot 2 Rocket 4.0 19:31:32 38° SSW 19:33:12 55° W 19:38:14 10° NNW
Cosmos 1140 Rocket 4.1 19:28:17 10° SW 19:33:24 56° WNW 19:38:30 10° NNE
SL-4 R/B 3.4 19:32:05 10° W 19:33:43 26° W 19:33:43 26° W
SL-8 Rocket 4.2 19:29:42 10° NNW 19:35:57 67° W 19:38:40 35° SSW
STARLINK-1246 3.9 19:31:49 10° WNW 19:35:30 66° NW 19:35:30 66° NW
Cosmos 864 Rocket 4.5 19:33:17 10° NNW 19:39:32 80° W 19:41:21 48° S
ATLAS 5 CENTAUR R/B 1.9 19:35:42 10° SW 19:39:55 65° NW 19:44:44 10° NE
STARLINK-1224 4.0 19:36:48 10° WNW 19:40:17 60° NW 19:40:17 60° NW
Cosmos 1825 3.9 19:39:45 10° N 19:41:43 26° NNE 19:41:43 26° NNE
Cosmos 841 Rocket 4.0 19:39:02 10° NNW 19:44:08 46° ENE 19:44:08 46° ENE
STARLINK-1225 4.2 19:41:48 10° WNW 19:45:05 54° WNW 19:45:05 54° WNW
Cosmos 2366 rocket 4.1 19:41:28 10° NNW 19:47:34 68° W 19:49:24 45° SSW
Meteor 2-12 Rocket 4.4 19:42:17 10° NNW 19:48:26 82° W 19:49:39 59° S
Cosmos 1570 Rocket 4.2 19:44:08 10° NNW 19:49:25 60° ENE 19:49:25 60° ENE
STARLINK-1230 4.4 19:46:47 10° WNW 19:49:51 49° WNW 19:49:51 49° WNW
Cosmos 1300 4.4 19:50:48 28° W 19:51:32 30° WNW 19:54:58 10° N
IGS 5A 4.4 19:53:17 42° W 19:53:17 42° W 19:57:09 10° NNW
Cosmos 468 Rocket 3.9 19:48:27 10° NNW 19:53:39 78° WSW 19:53:40 78° WSW
COSMOS 2455 3.7 19:49:49 10° NW 19:55:22 40° WSW 19:56:39 35° SW
Cosmos 1812 Rocket 4.1 19:56:43 56° WNW 19:56:43 56° WNW 20:00:45 10° N
Mayak 1.0 19:53:02 10° NNE 19:54:01 16° NE 19:54:01 16° NE
ASTEX 1 4.2 19:59:42 40° NE 19:59:42 40° NE 20:03:26 10° N
Nadezhda 3 Rocket 4.1 19:59:07 58° E 19:59:07 58° E 20:05:07 10° NNE
COSMOS 2406 4.0 20:03:30 38° ENE 20:03:30 38° ENE 20:07:10 10° NE
Cosmos 1833 Rocket 4.4 20:06:11 21° ENE 20:06:11 21° ENE 20:08:15 10° NE
ERS-1 Rocket 3.4 20:07:39 52° WSW 20:07:47 52° W 20:12:42 10° NNW
ATLAS CENTAUR R/B 3.1 20:09:10 10° NNW 20:11:25 26° N 20:11:25 26° N
Cosmos 2369 3.8 20:18:39 10° NNW 20:23:48 69° NNE 20:23:48 69° NNE
Cosmos 1741 Rocket 4.4 20:27:12 63° NNW 20:27:12 63° NNW 20:31:51 10° NNE
Cosmos 2208 Rocket 4.3 20:21:18 10° NNW 20:25:38 62° NNW 20:25:38 62° NNW
Cosmos 2239 Rocket 4.4 20:20:31 10° N 20:26:45 89° N 20:26:45 89° N
Cosmos 489 Rocket 4.5 20:22:19 10° NNW 20:28:30 70° WSW 20:28:30 70° WSW
Cosmos 1821 Rocket 4.0 20:23:18 10° NNW 20:29:41 78° W 20:29:53 77° WSW
Meteor 2-10 Rocket 3.9 20:31:30 62° NNW 20:31:30 62° NNW 20:36:08 10° N
SPOT 5 4.3 20:36:47 28° WNW 20:36:47 28° WNW 20:39:42 10° NNW
CZ-4C R/B 3.1 20:29:00 10° NW 20:35:54 64° NE 20:37:07 57° E
Cosmos 1697 Rocket 2.9 20:30:31 10° NNW 20:35:27 68° NNW 20:35:27 68° NNW
Cosmos 1934 Rocket 4.0 20:31:59 10° N 20:37:51 75° NNE 20:37:51 75° NNE
Meteor 2-3 Rocket 4.0 20:39:32 10° NNW 20:44:26 65° N 20:44:26 65° N
Cosmos 1605 Rocket 4.3 20:42:35 10° N 20:47:54 59° NE 20:47:54 59° NE
SL-16 R/B 3.6 20:45:27 10° NNW 20:50:21 29° NE 20:50:30 29° NE
Terra 3.4 20:55:02 28° WNW 20:55:02 28° WNW 20:58:16 10° NNW
Cosmos 2360 Rocket 4.2 20:52:31 10° N 20:56:20 18° NE 20:57:49 17° NE
Cosmos 2322 Rocket 3.6 20:55:25 10° NNW 21:00:17 28° NE 21:00:20 28° NE
Cosmos 1980 Rocket 2.8 20:58:52 10° NNW 21:03:10 54° NNW 21:03:10 54° NNW
USA 234 3.7 20:58:12 10° ENE 21:04:35 57° NNW 21:10:57 10° W
Cosmos 2344 4.3 20:55:52 10° NW 21:05:13 83° NE 21:08:39 54° SE
ATLAS 5 CENTAUR R/B 4.2 21:22:02 10° WNW 21:25:32 21° NNW 21:29:25 10° NNE
Cosmos 2082 Rocket 3.2 21:33:29 41° NNE 21:33:29 41° NNE 21:37:07 10° NNE
Mayak 1.2 21:28:46 10° N 21:30:35 20° NNW 21:30:35 20° NNW
Cosmos 1833 Rocket 3.7 21:47:49 43° NNW 21:47:49 43° NNW 21:52:26 10° NNE
Cosmos 2219 Rocket 4.4 21:52:20 10° N 21:56:15 19° NE 21:58:30 15° ENE
Cosmos 1459 Rocket 4.4 21:58:07 10° N 22:03:14 60° N 22:03:14 60° N
Cosmos 1727 Rocket 4.5 22:06:40 57° NNW 22:06:40 57° NNW 22:11:51 10° N
Cosmos 1802 Rocket 4.5 22:08:06 10° N 22:12:57 57° N 22:12:57 57° N
Cosmos 2016 Rocket 4.4 22:12:08 10° N 22:17:17 59° N 22:17:17 59° N
BREEZE-M DEB (TANK) 4.4 21:58:04 10° W 22:20:05 79° N 22:25:24 10° E
CZ-4C R/B 3.9 22:17:42 10° NW 22:22:17 35° W 22:22:17 35° W
SL-16 R/B 3.6 22:29:17 10° NNW 22:32:21 32° NW 22:32:21 32° NW
Cosmos 2360 Rocket 3.2 22:35:45 10° NNW 22:39:34 43° N 22:39:34 43° N
Cosmos 2322 Rocket 3.6 22:39:11 10° NNW 22:42:09 31° NW 22:42:09 31° NW
USA 234 4.2 22:40:53 10° ENE 22:47:01 45° N 22:53:10 10° WNW
Resurs 1-4 Rocket 4.1 22:43:29 10° NE 22:46:24 20° ENE 22:46:24 20° ENE
Cosmos 2333 Rocket 3.3 22:44:29 10° NNW 22:49:45 38° NE 22:49:56 38° NE
Cosmos 2237 Rocket 4.4 22:56:30 10° N 23:00:47 21° NE 23:05:04 10° E
SJ 16-02 3.9 23:08:33 16° ENE 23:08:33 16° ENE 23:09:53 10° NE
CZ-2D R/B 3.7 23:01:53 10° NNE 23:05:54 29° ENE 23:05:54 29° ENE
Cosmos 2082 Rocket 4.1 23:15:18 20° NW 23:16:23 21° NW 23:20:37 10° N
SL-16 R/B 2.6 23:29:18 73° ENE 23:29:18 73° ENE 23:35:27 10° NNW
Cosmos 2219 Rocket 2.6 23:35:35 10° NNW 23:40:11 58° N 23:40:11 58° N
Cosmos 1891 Rocket 4.4 23:40:22 10° N 23:46:33 79° ENE 23:46:33 79° ENE
Cosmos 2227 Rocket 4.4 23:49:33 13° ESE 23:51:10 14° E 23:53:59 10° ENE
COSMOS 2428 3.0 23:48:01 10° NNW 23:52:47 63° NNW 23:52:47 63° NNW
